EW9525 Weather Reports


Display with metric or nautical units.
time (UTC)temp
F
wind
direction
speed
MPH
gust
MPH
rain 1hr
in
rain 24hr
in
rain mn
in
humidity
%
barometer
mb
20260506061537 40 36 0.0 1.0 0.02 0.28 0.03 91 1018.2
20260506044526 41 302 0.0 0.0 0.02 0.25 0.25 89 1017.3
20260506043026 41 302 0.0 0.0 0.03 0.25 0.25 89 1017.2
20260506041536 41 295 0.0 2.0 0.04 0.24 0.24 87 1017.3
20260506040023 41 295 1.0 4.0 0.05 0.24 0.24 87 1017.2
20260506034532 41 300 0.0 1.0 0.05 0.23 0.23 88 1017.0
20260506033019 42 255 0.0 0.0 0.05 0.22 0.22 88 1017.0
20260506031517 42 252 0.0 1.0 0.03 0.20 0.20 87 1016.6
20260506030016 42 240 0.0 0.0 0.01 0.18 0.18 86 1016.8
20260506024515 42 236 0.0 0.0 0.01 0.18 0.18 87 1016.5
20260506023013 42 242 0.0 0.0 0.01 0.17 0.17 86 1016.2
20260506021511 42 243 0.0 1.0 0.01 0.17 0.17 86 1016.1
20260506020009 42 276 0.0 0.0 0.01 0.17 0.17 86 1015.4
20260506014507 43 288 0.0 0.0 0.01 0.17 0.17 87 1015.3
20260506013016 43 308 0.0 2.0 0.00 0.16 0.16 84 1015.1
20260506011513 43 313 1.0 2.0 0.00 0.16 0.16 83 1014.8
20260506010003 43 314 1.0 3.0 0.00 0.16 0.16 83 1014.6
20260506004604 43 314 2.0 5.0 0.00 0.16 0.16 82 1014.6
20260506003057 44 315 5.0 11.0 0.00 0.16 0.16 80 1014.2
20260506001558 45 1 3.0 7.0 0.00 0.16 0.16 79 1014.0
20260506000100 45 3 2.0 3.0 0.00 0.16 0.16 82 1014.0
20260505234554 45 2 0.0 0.0 0.00 0.16 0.16 81 1014.0
20260505233056 45 8 1.0 4.0 0.00 0.16 0.16 82 1013.7
20260505231553 45 15 1.0 4.0 0.01 0.16 0.16 83 1013.8
20260505230118 45 29 2.0 5.0 0.01 0.16 0.16 83 1013.4
20260505224551 45 21 3.0 6.0 0.01 0.16 0.16 83 1013.5
20260505223052 45 21 2.0 5.0 0.02 0.16 0.16 82 1013.5
20260505221556 45 24 2.0 5.0 0.01 0.15 0.15 81 1013.5
20260505220055 45 23 2.0 5.0 0.01 0.15 0.15 81 1013.5
20260505214549 45 18 2.0 6.0 0.01 0.15 0.15 82 1013.4
20260505213048 45 355 5.0 7.0 0.00 0.14 0.14 80 1013.4
20260505211558 45 11 5.0 8.0 0.00 0.14 0.14 82 1013.3
20260505210046 45 359 5.0 10.0 0.00 0.14 0.14 82 1013.3
20260505204546 45 17 6.0 9.0 0.00 0.14 0.14 80 1013.5
20260505203046 45 320 4.0 9.0 0.00 0.14 0.14 83 1013.6
20260505201549 45 340 5.0 9.0 0.00 0.14 0.14 84 1013.7
20260505200048 45 346 5.0 8.0 0.00 0.14 0.14 83 1013.7
20260505194545 44 20 5.0 8.0 0.01 0.14 0.14 83 1014.0
20260505193058 45 349 5.0 8.0 0.02 0.14 0.14 83 1013.8
20260505191544 45 333 5.0 8.0 0.02 0.14 0.14 83 1013.9
20260505190045 44 348 6.0 10.0 0.02 0.13 0.13 84 1013.9
20260505184542 44 26 6.0 10.0 0.03 0.13 0.13 85 1013.9
20260505183043 45 1 3.0 6.0 0.04 0.12 0.12 84 1014.0
20260505181546 44 15 5.0 9.0 0.04 0.11 0.11 84 1013.9
20260505180038 45 6 6.0 9.0 0.05 0.11 0.11 86 1013.8
20260505174538 44 16 5.0 8.0 0.06 0.10 0.10 86 1013.9
20260505173037 44 356 3.0 7.0 0.05 0.08 0.08 87 1014.0
20260505171535 44 333 4.0 7.0 0.05 0.07 0.07 84 1013.9
20260505170034 45 309 4.0 9.0 0.04 0.06 0.06 83 1014.0
20260505164531 45 309 5.0 9.0 0.02 0.04 0.04 84 1013.6
20260505163030 45 318 7.0 11.0 0.01 0.03 0.03 83 1013.3
20260505161538 45 327 6.0 10.0 0.00 0.02 0.02 83 1013.3
20260505153021 45 284 4.0 6.0 0.00 0.02 0.02 81 1013.0
20260505151519 46 275 2.0 6.0 0.00 0.02 0.02 82 1013.0
20260505124601 45 293 4.0 9.0 0.00 0.00 0.00 74 1011.2
20260505123102 45 294 5.0 10.0 0.00 0.00 0.00 72 1010.8
20260505121556 45 302 5.0 11.0 0.00 0.00 0.00 73 1010.6
20260505120059 46 297 8.0 12.0 0.00 0.00 0.00 68 1010.4
20260505114551 46 295 7.0 12.0 0.00 0.00 0.00 68 1010.4
20260505113053 46 300 6.0 9.0 0.00 0.00 0.00 68 1010.1
20260505111549 46 321 5.0 8.0 0.00 0.00 0.00 68 1010.2
20260505101550 46 293 3.0 5.0 0.00 0.00 0.00 71 1010.1
20260505100046 46 290 2.0 5.0 0.00 0.00 0.00 74 1009.7
20260505094545 46 294 3.0 5.0 0.00 0.00 0.00 73 1009.7
20260505093044 46 314 2.0 4.0 0.00 0.00 0.00 76 1009.4
20260505091543 46 302 2.0 4.0 0.00 0.00 0.00 76 1009.6
20260505090046 46 305 1.0 2.0 0.00 0.00 0.00 80 1009.7
20260505084551 46 304 0.0 2.0 0.00 0.00 0.00 81 1009.8
20260505083053 46 260 0.0 2.0 0.00 0.00 0.00 72 1009.8
20260505081539 46 212 1.0 3.0 0.00 0.00 0.00 77 1010.2
20260505080045 46 207 1.0 3.0 0.00 0.00 0.00 78 1010.1
20260505074534 47 314 0.0 2.0 0.00 0.00 0.00 71 1009.5
20260505073035 47 329 1.0 4.0 0.00 0.00 0.00 69 1009.3
20260505071543 48 311 3.0 6.0 0.00 0.00 0.00 69 1009.2
20260505070028 48 300 3.0 7.0 0.00 0.00 0.00 69 1009.1
20260505064528 48 316 5.0 9.0 0.00 0.00 0.00 66 1008.9